Wind_Speed
18 17 17 17 19 18 16 12 12 13 12 11 12 12 11 10 9 10 11 10 11 11 13 14 14 13 13 12 10 10 10 13 15 12 12 13 14 11 14 17 14 16 16
17 14 15 16 17 18 17 15 13 13 13 12 11 12 11 10 12 12 11 11 11 11 12 14 13 12 13 11 10 9 6 8 7 9 9 11 12 12 11 11 10 10 10
15 14 13 13 15 15 14 15 16 16 14 13 13 13 12 12 12 11 9 9 8 8 10 11 11 13 13 12 11 11 9 8 7 9 9 10 9 10 9 8 8 7 8
14 15 14 13 13 12 13 14 14 14 12 12 12 12 12 13 12 9 8 8 7 8 10 10 9 13 13 12 13 12 13 11 9 9 10 10 8 8 8 7 7 6 5
15 14 14 14 12 12 12 13 12 11 9 9 10 12 11 11 10 9 10 9 10 10 11 12 13 13 12 12 14 14 15 14 12 11 10 9 9 8 9 7 6 5 5
16 15 14 14 13 13 13 13 11 10 9 8 10 11 10 9 12 12 10 12 15 15 15 16 16 16 16 14 13 13 12 12 12 12 11 10 8 7 7 6 4 3 3
18 17 16 16 15 14 13 13 12 12 10 10 11 11 11 12 13 13 15 16 17 17 17 17 17 16 15 13 12 12 12 10 11 9 8 9 8 8 6 5 2 1 2
20 21 19 18 17 15 15 16 14 13 12 13 15 15 15 14 14 14 16 18 18 20 21 21 20 19 18 15 12 11 10 9 8 7 6 5 5 3 3 0 1 2 3
18 17 17 17 16 15 16 16 16 12 13 17 19 18 16 16 16 17 18 18 19 20 19 19 19 19 18 16 14 13 11 9 7 6 5 5 3 3 3 3 6 7 6
14 12 16 19 18 16 16 18 19 23 24 23 22 20 18 17 20 17 17 19 18 18 19 20 19 18 16 15 14 13 12 9 9 7 6 8 8 9 9 8 9 11 11
17 18 20 20 19 19 21 22 23 26 25 24 21 18 18 17 17 16 16 15 17 19 20 20 20 20 18 17 16 15 13 13 9 13 11 11 12 12 12 13 14 15 16
20 22 22 23 21 21 22 24 25 25 23 21 18 17 16 17 15 16 14 15 17 19 20 20 20 18 16 15 16 15 14 14 14 14 14 14 13 15 16 17 18 19 20
18 20 18 22 22 18 20 20 23 23 22 21 17 15 14 14 16 14 13 16 18 19 17 18 18 17 14 14 15 14 13 13 14 14 15 16 17 17 17 17 18 19 20
19 17 21 26 23 18 20 17 19 21 17 17 16 14 13 14 13 13 16 16 16 16 15 16 16 13 14 14 14 14 14 14 14 15 17 19 21 21 19 20 20 18 19
18 19 20 26 23 22 19 16 19 18 18 16 14 13 12 12 11 15 15 15 15 13 13 14 13 12 14 14 13 14 15 15 17 18 21 25 29 29 25 22 21 22 23
19 20 21 20 20 21 18 18 18 17 15 12 12 9 8 10 13 14 13 13 12 10 11 13 13 14 15 14 12 12 13 17 19 21 25 29 31 32 27 21 20 22 23
19 19 20 20 20 22 19 19 17 15 12 11 11 9 9 12 12 12 13 12 10 11 11 13 15 16 15 13 14 14 15 17 19 22 28 32 36 35 25 23 22 23 23
17 16 14 17 17 19 18 19 17 12 13 13 10 8 9 10 9 13 11 10 10 10 11 12 14 16 13 14 14 16 18 19 23 28 33 37 41 41 31 25 23 22 24
13 12 12 13 14 13 15 15 15 13 13 12 8 6 8 8 9 9 8 9 9 8 11 12 13 15 17 18 17 15 18 22 26 30 36 40 41 40 34 30 27 28 31
11 11 11 12 12 12 13 13 11 9 13 8 6 8 7 7 7 6 8 8 8 7 8 10 12 14 16 18 16 16 20 24 27 32 36 39 41 39 32 30 32 35 37
11 10 9 10 12 11 10 11 10 8 10 7 6 6 5 4 5 6 8 6 6 5 10 14 15 15 16 18 19 20 22 24 28 33 36 40 45 43 35 37 40 40 38
10 9 8 8 8 8 8 6 5 5 6 5 4 4 4 5 6 6 7 4 4 7 7 10 14 17 18 19 20 22 24 26 30 34 38 41 45 46 41 44 43 43 43
8 8 6 6 5 5 5 5 5 4 2 2 3 4 4 4 7 5 4 3 4 5 8 11 14 18 18 18 21 25 25 25 28 34 38 41 46 48 46 48 45 42 40
9 8 6 6 6 4 3 4 3 2 1 1 4 4 4 5 6 5 4 3 5 7 9 11 14 18 19 21 23 25 28 27 31 35 38 44 49 51 50 48 44 41 41
11 9 7 6 6 6 3 3 3 2 1 1 2 3 4 6 6 4 5 6 7 8 10 11 13 18 22 24 24 24 25 26 31 37 40 46 52 53 52 49 41 43 38
14 13 12 10 7 6 5 4 2 2 2 2 1 2 4 5 4 5 5 7 8 10 12 13 14 18 21 25 27 26 25 29 33 36 41 45 52 53 53 51 40 43 37
Wind_Direction
90 88 92 97 91 85 88 98 114 120 121 115 112 112 114 109 101 91 92 85 74 58 50 59 59 62 69 61 52 42 58 68 69 77 82 96 102 104 111 143 121 119 129
88 90 93 90 90 90 94 99 117 130 120 115 116 119 124 118 96 92 79 67 60 52 55 61 65 65 69 60 56 53 67 86 98 121 132 120 117 121 124 127 129 132 135
91 93 90 89 86 89 92 93 92 101 115 118 106 101 93 87 95 90 80 72 67 74 78 79 81 63 72 74 62 55 69 105 115 145 136 130 130 136 130 137 134 147 156
102 101 103 107 108 110 106 98 92 91 91 89 89 90 92 97 102 99 86 82 92 90 92 89 73 62 65 63 62 65 68 87 102 129 135 137 136 131 133 148 152 156 156
109 110 111 114 111 109 107 105 107 107 106 103 103 105 107 101 95 85 86 80 76 88 84 70 67 67 63 53 53 64 76 84 82 92 121 128 136 144 137 135 132 139 154
116 110 114 116 117 111 111 119 124 131 130 120 111 112 110 102 99 96 87 83 84 84 71 65 61 60 61 62 60 62 73 82 75 77 96 111 112 122 120 123 126 124 151
106 103 105 107 107 116 117 111 110 115 118 115 117 119 113 108 104 89 84 82 76 73 69 64 61 59 61 61 63 70 70 72 85 83 82 101 97 98 91 93 97 161 134
99 97 98 100 105 108 109 107 107 108 113 117 125 124 115 108 98 93 83 73 70 70 67 62 58 55 54 59 61 68 69 59 62 61 80 91 86 99 120 132 243 251 278
94 95 98 98 101 102 106 111 110 118 131 126 120 113 112 108 100 93 84 78 69 60 55 57 53 53 47 45 41 38 33 43 60 62 50 25 9 358 350 349 322 301 281
94 100 108 106 101 104 108 114 113 100 104 114 114 118 113 98 88 82 71 61 52 46 40 42 42 40 39 37 40 27 40 44 28 16 349 356 344 337 336 329 310 307 303
98 105 115 112 104 99 112 114 105 105 109 111 111 104 97 88 77 72 63 54 43 38 35 32 33 26 28 29 30 35 31 25 17 7 9 350 339 330 318 316 308 300 296
107 107 105 108 105 103 108 107 106 106 108 108 105 100 92 74 76 60 51 45 38 35 28 26 22 22 22 27 29 23 26 24 23 13 9 355 340 333 322 310 303 298 292
114 115 112 110 108 113 113 107 108 110 96 102 95 88 80 72 71 63 53 42 33 30 22 24 26 25 27 33 30 32 36 36 34 23 12 0 349 337 330 316 304 300 297
108 109 111 110 112 113 105 105 103 99 89 100 98 101 85 74 75 73 57 44 34 25 17 27 31 38 41 42 43 44 49 50 40 24 11 2 353 342 323 311 305 298 294
104 109 105 112 115 118 112 99 107 98 93 90 85 83 81 79 71 67 58 45 34 25 18 35 45 54 59 56 60 58 45 34 31 20 9 0 353 347 338 325 312 302 297
105 108 113 107 115 119 112 110 104 93 89 101 97 90 92 79 58 56 48 42 35 28 33 48 67 73 69 66 64 55 28 24 15 9 5 360 355 351 341 332 321 306 299
111 106 105 107 110 120 123 117 109 108 115 111 107 98 83 68 63 55 47 42 47 43 37 46 48 59 58 52 45 30 15 8 6 355 354 354 357 358 347 332 318 301 292
114 114 114 118 117 122 123 124 119 122 109 93 79 63 69 45 48 55 44 37 45 42 53 50 41 43 44 41 26 9 9 6 1 355 356 357 359 358 349 338 326 306 299
127 123 123 119 123 122 120 114 122 124 100 79 68 47 37 25 29 47 53 46 42 56 57 47 34 33 31 21 14 11 7 2 1 354 358 359 359 353 346 336 325 312 307
141 141 133 134 136 130 126 123 124 117 91 78 65 53 35 18 27 28 53 44 47 56 46 37 30 17 20 17 16 9 1 360 356 358 359 358 357 355 345 331 321 314 312
146 148 142 142 149 147 137 133 122 115 93 79 68 57 24 12 32 33 61 49 51 42 26 14 13 15 16 13 10 4 359 356 353 358 360 358 356 354 344 336 328 324 318
136 146 156 155 154 159 148 136 110 99 103 117 94 56 20 13 40 37 57 51 41 31 18 5 9 6 5 9 6 1 1 353 353 357 358 358 355 352 345 339 334 329 323
148 136 154 151 153 161 153 148 142 124 134 134 87 61 43 31 44 34 40 19 20 1 356 0 0 11 3 357 355 359 358 353 350 353 356 357 355 352 347 343 336 332 327
170 160 163 155 151 157 167 179 182 152 118 44 57 64 55 46 49 31 1 355 347 344 344 349 352 353 356 357 351 349 352 351 351 350 354 358 355 353 350 345 341 336 337
190 173 190 195 171 156 161 174 160 139 143 29 62 44 43 52 35 20 354 355 333 334 332 336 346 344 347 350 352 352 349 351 349 351 353 357 355 354 352 348 346 343 341
197 192 195 199 203 193 183 202 226 233 229 274 354 41 36 43 38 17 354 344 345 333 332 336 344 340 341 343 350 352 350 354 351 351 354 358 356 356 353 352 352 349 347
Height
5869 5870 5870 5871 5871 5871 5872 5874 5875 5877 5879 5880 5881 5882 5883 5883 5884 5884 5885 5884 5883 5883 5882 5881 5881 5881 5879 5878 5879 5878 5879 5878 5877 5878 5878 5880 5880 5882 5882 5883 5883 5884 5884
5871 5872 5873 5873 5873 5873 5875 5877 5878 5880 5881 5882 5884 5884 5885 5886 5885 5885 5885 5885 5886 5885 5883 5883 5883 5882 5882 5882 5881 5880 5880 5879 5878 5880 5882 5882 5882 5883 5884 5885 5885 5886 5887
5874 5874 5874 5874 5874 5876 5878 5879 5880 5881 5883 5886 5886 5886 5887 5886 5886 5886 5887 5887 5887 5886 5886 5885 5885 5885 5885 5884 5884 5883 5881 5880 5879 5880 5882 5883 5884 5884 5885 5887 5887 5887 5886
5878 5877 5877 5878 5878 5879 5881 5881 5882 5883 5885 5886 5888 5889 5889 5889 5890 5890 5890 5889 5888 5887 5888 5888 5888 5887 5888 5887 5886 5885 5884 5884 5884 5883 5883 5884 5885 5886 5887 5888 5888 5888 5887
5880 5880 5882 5883 5883 5883 5883 5884 5885 5887 5888 5890 5891 5891 5892 5893 5893 5893 5892 5891 5891 5891 5892 5892 5891 5890 5889 5888 5888 5887 5887 5887 5886 5886 5886 5887 5888 5889 5888 5888 5887 5886 5886
5883 5884 5885 5885 5885 5886 5886 5887 5888 5889 5890 5891 5893 5894 5895 5895 5895 5895 5895 5894 5894 5894 5893 5893 5893 5891 5891 5890 5889 5888 5888 5888 5888 5889 5889 5889 5889 5889 5889 5888 5889 5887 5886
5885 5887 5887 5887 5887 5888 5888 5889 5891 5892 5893 5895 5897 5898 5899 5899 5900 5899 5899 5898 5896 5896 5895 5894 5892 5891 5891 5890 5889 5889 5889 5889 5889 5890 5891 5890 5889 5888 5888 5887 5887 5887 5885
5888 5889 5890 5890 5891 5891 5891 5892 5894 5895 5896 5898 5899 5900 5901 5902 5903 5902 5901 5900 5900 5899 5897 5895 5895 5894 5893 5891 5890 5889 5889 5889 5890 5890 5889 5890 5888 5887 5887 5887 5887 5886 5884
5891 5892 5893 5894 5894 5894 5894 5894 5895 5896 5897 5899 5901 5903 5904 5905 5905 5905 5904 5903 5902 5902 5901 5899 5897 5896 5895 5894 5892 5890 5889 5888 5888 5888 5889 5890 5889 5887 5886 5884 5885 5885 5882
5895 5895 5896 5897 5896 5897 5897 5898 5899 5900 5901 5902 5904 5905 5907 5907 5907 5907 5907 5906 5905 5904 5903 5901 5899 5898 5897 5895 5894 5892 5892 5890 5890 5889 5888 5887 5886 5884 5883 5882 5881 5880 5879
5899 5898 5899 5900 5900 5901 5901 5901 5903 5904 5905 5906 5908 5909 5910 5910 5910 5910 5909 5908 5907 5906 5905 5903 5901 5899 5897 5895 5895 5893 5891 5890 5889 5889 5888 5887 5885 5884 5883 5880 5879 5878 5876
5901 5902 5903 5902 5903 5904 5905 5907 5908 5909 5910 5911 5912 5913 5914 5913 5913 5913 5912 5911 5909 5907 5907 5906 5903 5901 5899 5897 5896 5894 5892 5891 5890 5889 5887 5887 5885 5883 5881 5878 5876 5875 5873
5905 5905 5906 5905 5906 5908 5910 5911 5912 5913 5913 5914 5915 5916 5917 5916 5915 5914 5914 5913 5912 5910 5908 5907 5905 5902 5900 5898 5896 5895 5894 5893 5892 5890 5888 5886 5883 5882 5879 5876 5873 5871 5869
5908 5909 5909 5908 5908 5911 5913 5914 5915 5916 5916 5918 5919 5919 5919 5918 5916 5916 5916 5915 5914 5912 5910 5908 5907 5905 5901 5899 5898 5897 5897 5895 5892 5890 5888 5886 5882 5878 5874 5871 5867 5864 5862
5909 5912 5913 5912 5913 5915 5916 5919 5919 5921 5921 5920 5921 5922 5922 5920 5919 5918 5918 5917 5915 5914 5913 5911 5909 5907 5903 5902 5900 5898 5897 5896 5895 5893 5890 5886 5880 5875 5871 5867 5863 5860 5857
5913 5914 5916 5915 5916 5917 5919 5921 5924 5924 5924 5924 5924 5925 5925 5923 5922 5920 5919 5919 5917 5916 5914 5913 5911 5909 5906 5905 5902 5901 5900 5897 5893 5891 5887 5882 5876 5869 5863 5859 5855 5851 5847
5916 5917 5919 5920 5921 5921 5923 5925 5926 5927 5929 5930 5928 5927 5927 5926 5924 5923 5922 5920 5919 5917 5914 5914 5912 5909 5908 5906 5904 5902 5900 5897 5894 5890 5884 5879 5874 5867 5859 5853 5848 5843 5840
5919 5920 5923 5924 5925 5925 5927 5928 5928 5929 5929 5928 5928 5928 5929 5928 5926 5923 5922 5921 5919 5917 5916 5914 5912 5911 5910 5908 5905 5903 5900 5896 5892 5887 5881 5875 5867 5860 5854 5849 5843 5837 5833
5922 5923 5924 5926 5927 5929 5929 5930 5931 5931 5929 5929 5930 5930 5930 5930 5928 5925 5923 5922 5919 5918 5916 5916 5913 5911 5911 5908 5906 5902 5898 5895 5891 5885 5879 5872 5865 5858 5851 5844 5839 5833 5827
5925 5926 5926 5928 5928 5929 5931 5933 5932 5932 5929 5931 5932 5931 5930 5930 5928 5926 5923 5922 5920 5918 5918 5917 5915 5912 5911 5909 5905 5902 5898 5894 5889 5884 5877 5871 5866 5856 5848 5840 5834 5826 5819
5926 5927 5927 5927 5929 5929 5930 5933 5934 5933 5931 5931 5932 5932 5931 5931 5928 5925 5924 5923 5922 5921 5919 5916 5916 5914 5913 5909 5906 5902 5898 5893 5888 5883 5876 5870 5862 5853 5844 5836 5826 5817 5808
5926 5927 5928 5929 5929 5930 5931 5932 5933 5933 5932 5932 5931 5931 5931 5930 5927 5925 5925 5925 5924 5921 5920 5919 5917 5914 5912 5910 5906 5902 5899 5893 5887 5881 5876 5868 5859 5849 5838 5828 5817 5808 5798
5925 5927 5929 5930 5930 5931 5931 5931 5931 5931 5931 5931 5931 5931 5931 5930 5927 5925 5925 5925 5923 5921 5919 5919 5917 5915 5912 5909 5904 5901 5897 5892 5887 5880 5874 5866 5856 5845 5833 5821 5809 5798 5788
5924 5925 5929 5931 5931 5931 5931 5931 5931 5931 5931 5930 5930 5930 5930 5929 5927 5926 5925 5924 5923 5921 5919 5917 5915 5914 5911 5907 5902 5898 5894 5889 5883 5878 5871 5863 5852 5840 5827 5815 5803 5791 5780
5923 5924 5927 5929 5930 5930 5931 5931 5931 5931 5932 5931 5931 5931 5930 5929 5927 5926 5925 5924 5922 5920 5918 5917 5915 5912 5908 5905 5902 5898 5892 5888 5882 5874 5867 5857 5847 5836 5823 5810 5798 5786 5775
5921 5922 5923 5926 5928 5928 5929 5930 5931 5932 5931 5931 5931 5931 5931 5929 5928 5926 5924 5923 5922 5920 5917 5915 5914 5911 5908 5904 5900 5895 5890 5886 5879 5872 5866 5858 5846 5833 5820 5807 5794 5782 5769